Weather History for Albert Lea, MN

Change the Weather History Date:

Saturday, January 28, 2012

  Actual Average Record
Temperature  
Mean Temperature 24 °F -  
Max Temperature 30 °F 23 °F 41 °F (2008)
Min Temperature 17 °F 9 °F -16 °F (1997)
Degree Days  
Heating Degree Days 42    
Moisture  
Dew Point 16 °F    
Average Humidity 74    
Maximum Humidity 86    
Minimum Humidity 55    
Precipitation  
Precipitation 0.00 in - - ()
Sea Level Pressure  
Sea Level Pressure 29.98 in    
Wind  
Wind Speed 10 mph (West)    
Max Wind Speed 15 mph    
Max Gust Speed 21 mph    
Visibility 10 miles    
Events      
Averages and records for this station are not official NWS values.
T = Trace of Precipitation, MM = Missing Value Source: NWS Daily Summary

Daily Weather History Graph

Daily Weather History Graph

Search for Another Location

Airport:

Trip Planner

Search our weather history database for the weather conditions in past years. The results will help you decide how hot, cold, wet, or windy it might be!

Date:

Astronomy

Jan. 28, 2012 Rise Set
Actual Time 7:34 AM CST 5:18 PM CST
Civil Twilight 7:03 AM CST 5:49 PM CST
Nautical Twilight 6:29 AM CST 6:24 PM CST
Astronomical Twilight 5:55 AM CST 6:57 PM CST
Moon 9:44 AM CST (1/28) 11:21 PM CST (1/28)
Length of Visible Light 10h 45m
Length of Day
9h 43m
Waxing Crescent, 28% of the Moon is Illuminated
Jan 28
Waxing Crescent
Jan 30
First Quarter
Feb 7
Full
Feb 14
Last Quarter
Feb 21
New

Hourly Weather History & Observations

Time (CST) Temp. Windchill Dew Point Humidity Pressure Visibility Wind Dir Wind Speed Gust Speed Precip Events Conditions
12:10 AM 21.2 °F 10.9 °F 17.6 °F 86% 29.95 in 10.0 mi West 9.2 mph 16.1 mph N/A   Clear
12:30 AM 21.2 °F 11.7 °F 17.6 °F 86% 29.95 in 10.0 mi WNW 8.1 mph - N/A   Clear
12:50 AM 21.2 °F 11.7 °F 17.6 °F 86% 29.95 in 10.0 mi WNW 8.1 mph - N/A   Clear
1:10 AM 21.2 °F 10.9 °F 17.6 °F 86% 29.94 in 10.0 mi West 9.2 mph - N/A   Clear
1:29 AM 21.2 °F 10.9 °F 17.6 °F 86% 29.94 in 10.0 mi WNW 9.2 mph 16.1 mph N/A   Clear
1:50 AM 21.2 °F 10.1 °F 17.6 °F 86% 29.95 in 10.0 mi West 10.4 mph 16.1 mph N/A   Clear
2:10 AM 21.2 °F 11.7 °F 15.8 °F 80% 29.95 in 10.0 mi West 8.1 mph - N/A   Clear
2:30 AM 21.2 °F 10.1 °F 15.8 °F 80% 29.95 in 10.0 mi West 10.4 mph - N/A   Clear
2:50 AM 21.2 °F 10.9 °F 15.8 °F 80% 29.95 in 10.0 mi West 9.2 mph - N/A   Clear
3:09 AM 19.4 °F 8.6 °F 15.8 °F 86% 29.95 in 10.0 mi West 9.2 mph - N/A   Clear
3:30 AM 19.4 °F 9.5 °F 14.0 °F 80% 29.95 in 10.0 mi West 8.1 mph - N/A   Clear
3:49 AM 19.4 °F 8.6 °F 12.2 °F 74% 29.96 in 10.0 mi West 9.2 mph 17.3 mph N/A   Clear
4:10 AM 19.4 °F 7.9 °F 12.2 °F 74% 29.96 in 10.0 mi West 10.4 mph 19.6 mph N/A   Clear
4:30 AM 19.4 °F 7.9 °F 12.2 °F 74% 29.95 in 10.0 mi West 10.4 mph 19.6 mph N/A   Clear
4:50 AM 19.4 °F 7.9 °F 12.2 °F 74% 29.95 in 10.0 mi West 10.4 mph 17.3 mph N/A   Clear
5:09 AM 19.4 °F 7.2 °F 12.2 °F 74% 29.96 in 10.0 mi West 11.5 mph 17.3 mph N/A   Clear
5:30 AM 19.4 °F 7.2 °F 12.2 °F 74% 29.96 in 10.0 mi West 11.5 mph 17.3 mph N/A   Clear
6:10 AM 19.4 °F 7.2 °F 12.2 °F 74% 29.97 in 10.0 mi West 11.5 mph 17.3 mph N/A   Clear
6:29 AM 17.6 °F 5.0 °F 12.2 °F 79% 29.98 in 10.0 mi West 11.5 mph 17.3 mph N/A   Clear
6:50 AM 17.6 °F 5.7 °F 12.2 °F 79% 29.98 in 10.0 mi West 10.4 mph 16.1 mph N/A   Clear
7:10 AM 17.6 °F 5.0 °F 12.2 °F 79% 29.99 in 10.0 mi West 11.5 mph 16.1 mph N/A   Clear
7:29 AM 17.6 °F 6.4 °F 12.2 °F 79% 30.00 in 10.0 mi West 9.2 mph 19.6 mph N/A   Clear
7:50 AM 17.6 °F 5.7 °F 12.2 °F 79% 30.00 in 10.0 mi West 10.4 mph 17.3 mph N/A   Clear
8:09 AM 17.6 °F 5.7 °F 12.2 °F 79% 30.00 in 10.0 mi West 10.4 mph 17.3 mph N/A   Clear
8:30 AM 19.4 °F 7.2 °F 12.2 °F 74% 30.00 in 10.0 mi West 11.5 mph 17.3 mph N/A   Clear
8:50 AM 19.4 °F 9.5 °F 12.2 °F 74% 30.00 in 10.0 mi West 8.1 mph 19.6 mph N/A   Clear
9:10 AM 19.4 °F 7.9 °F 12.2 °F 74% 30.01 in 10.0 mi West 10.4 mph 17.3 mph N/A   Clear
9:30 AM 21.2 °F 10.9 °F 12.2 °F 68% 30.01 in 10.0 mi West 9.2 mph 17.3 mph N/A   Clear
9:49 AM 21.2 °F 8.9 °F 14.0 °F 74% 30.01 in 10.0 mi West 12.7 mph 20.7 mph N/A   Clear
10:10 AM 21.2 °F 9.5 °F 14.0 °F 74% 30.01 in 10.0 mi West 11.5 mph 18.4 mph N/A   Clear
10:29 AM 23.0 °F 13.1 °F 14.0 °F 68% 30.02 in 10.0 mi WNW 9.2 mph 18.4 mph N/A   Clear
10:50 AM 24.8 °F 12.9 °F 14.0 °F 64% 30.02 in 10.0 mi West 13.8 mph 19.6 mph N/A   Clear
11:10 AM 24.8 °F 14.0 °F 14.0 °F 64% 30.02 in 10.0 mi West 11.5 mph 19.6 mph N/A   Clear
11:29 AM 24.8 °F 14.0 °F 15.8 °F 69% 30.02 in 10.0 mi West 11.5 mph 18.4 mph N/A   Clear
11:50 AM 26.6 °F 14.7 °F 15.8 °F 64% 30.02 in 10.0 mi West 15.0 mph 19.6 mph N/A   Clear
12:09 PM 26.6 °F 16.8 °F 15.8 °F 64% 30.01 in 10.0 mi West 10.4 mph 18.4 mph N/A   Clear
12:30 PM 26.6 °F 15.7 °F 15.8 °F 64% 30.01 in 10.0 mi West 12.7 mph 19.6 mph N/A   Clear
12:49 PM 26.6 °F 15.7 °F 15.8 °F 64% 30.01 in 10.0 mi West 12.7 mph 19.6 mph N/A   Clear
1:10 PM 28.4 °F 19.1 °F 15.8 °F 59% 30.01 in 10.0 mi West 10.4 mph 18.4 mph N/A   Clear
1:30 PM 28.4 °F 19.7 °F 17.6 °F 64% 30.00 in 10.0 mi West 9.2 mph - N/A   Clear
1:50 PM 28.4 °F 18.0 °F 15.8 °F 59% 30.00 in 10.0 mi West 12.7 mph 18.4 mph N/A   Scattered Clouds
2:09 PM 28.4 °F 19.7 °F 15.8 °F 59% 30.00 in 10.0 mi West 9.2 mph 18.4 mph N/A   Scattered Clouds
2:30 PM 30.2 °F 20.2 °F 15.8 °F 55% 29.99 in 10.0 mi West 12.7 mph 18.4 mph N/A   Mostly Cloudy
2:50 PM 30.2 °F 20.2 °F 17.6 °F 60% 30.00 in 10.0 mi West 12.7 mph - N/A   Scattered Clouds
3:09 PM 30.2 °F 20.2 °F 19.4 °F 64% 30.00 in 10.0 mi WSW 12.7 mph 17.3 mph N/A   Scattered Clouds
3:29 PM 30.2 °F 22.6 °F 19.4 °F 64% 29.99 in 10.0 mi WSW 8.1 mph 18.4 mph N/A   Scattered Clouds
3:50 PM 30.2 °F 20.8 °F 21.2 °F 69% 30.00 in 10.0 mi WSW 11.5 mph 16.1 mph N/A   Mostly Cloudy
4:10 PM 30.2 °F 23.4 °F 21.2 °F 69% 30.00 in 10.0 mi West 6.9 mph - N/A   Mostly Cloudy
4:50 PM 30.2 °F 22.6 °F 21.2 °F 69% 30.00 in 10.0 mi WSW 8.1 mph 17.3 mph N/A   Clear
5:10 PM 28.4 °F 20.4 °F 21.2 °F 74% 30.00 in 10.0 mi WSW 8.1 mph - N/A   Clear
5:29 PM 28.4 °F 20.4 °F 21.2 °F 74% 30.00 in 10.0 mi West 8.1 mph - N/A   Clear
5:50 PM 26.6 °F 18.2 °F 21.2 °F 80% 29.99 in 10.0 mi WSW 8.1 mph - N/A   Clear
6:10 PM 26.6 °F 19.1 °F 21.2 °F 80% 29.99 in 10.0 mi WSW 6.9 mph - N/A   Clear
6:29 PM 26.6 °F 17.5 °F 21.2 °F 80% 29.98 in 10.0 mi WSW 9.2 mph - N/A   Clear
6:50 PM 26.6 °F 19.1 °F 21.2 °F 80% 29.98 in 10.0 mi WSW 6.9 mph - N/A   Clear
7:10 PM 26.6 °F 18.2 °F 21.2 °F 80% 29.98 in 10.0 mi WSW 8.1 mph - N/A   Clear
7:28 PM 26.6 °F 17.5 °F 21.2 °F 80% 29.98 in 10.0 mi WSW 9.2 mph - N/A   Clear
7:50 PM 26.6 °F 17.5 °F 21.2 °F 80% 29.97 in 10.0 mi WSW 9.2 mph - N/A   Clear
8:10 PM 26.6 °F 18.2 °F 21.2 °F 80% 29.96 in 10.0 mi SW 8.1 mph - N/A   Scattered Clouds
8:29 PM 26.6 °F 19.1 °F 21.2 °F 80% 29.96 in 10.0 mi WSW 6.9 mph - N/A   Scattered Clouds
8:50 PM 26.6 °F 19.1 °F 21.2 °F 80% 29.95 in 10.0 mi WSW 6.9 mph - N/A   Overcast
9:10 PM 26.6 °F 20.0 °F 21.2 °F 80% 29.95 in 10.0 mi WSW 5.8 mph - N/A   Overcast
9:29 PM 26.6 °F 20.0 °F 21.2 °F 80% 29.93 in 10.0 mi SW 5.8 mph - N/A   Mostly Cloudy
9:50 PM 26.6 °F 19.1 °F 21.2 °F 80% 29.93 in 10.0 mi WSW 6.9 mph - N/A   Scattered Clouds
10:10 PM 26.6 °F 19.1 °F 21.2 °F 80% 29.93 in 10.0 mi WSW 6.9 mph - N/A   Mostly Cloudy
10:29 PM 26.6 °F 18.2 °F 21.2 °F 80% 29.93 in 10.0 mi WSW 8.1 mph - N/A   Overcast
11:10 PM 26.6 °F 18.2 °F 24.8 °F 93% 29.91 in 2.5 mi West 8.1 mph 17.3 mph N/A Snow Light Snow
11:29 PM 26.6 °F 17.5 °F 26.6 °F 100% 29.91 in 10.0 mi West 9.2 mph - N/A   Overcast